Regional Weather Roundup
Issued by NWS

Home | Current Version | Previous Version | Graphics & Text | Print | Product List | Glossary On
Versions: 1 2 3 4 5 6 7 8 9 10 11 12 13 14 15 16 17 18 19 20 21 22 23 24 25 26 27 28 29 30 31 32 33 34 35 36 37 38 39 40 41 42 43 44 45
000
ASUS45 KSLC 270910
RWRUT

UTAH REGIONAL WEATHER ROUNDUP
NATIONAL WEATHER SERVICE SALT LAKE CITY UT
200 AM MST SAT DEC 27 2014

UTZ001>011-023>025-271000-

NORTHERN UTAH

CITY           SKY/WX    TMP DP  RH WIND       PRES   REMARKS
BRIGHAM CITY   PTCLDY    12   8  85 CALM      30.28R
HILL AFB       MOCLDY    17   8  69 SE13      30.24R WCI   3
LOGAN          MOCLDY     7   4  87 NE3       30.27R
OGDEN          MOCLDY    16   9  74 S7        30.25R WCI   6
PROVO AIRPORT  PTCLDY    16  16 100 E5        30.26R WCI   9
SALT LAKE CITY PTCLDY    20  16  84 CALM      30.26R
VERNAL         LGT SNOW  18  14  84 E3        30.18R FOG
WENDOVER       CLEAR     27   9  46 NW13      30.27S WCI  16
HEBER CITY     CLOUDY    10   7  85 CALM      30.20R
WEST JORDAN    CLEAR     18  12  79 NW3       30.25R

$$

UTZ012>022-026-027-271000-

SOUTHERN/CENTRAL UTAH

CITY           SKY/WX    TMP DP  RH WIND       PRES   REMARKS
BLANDING       CLEAR     15  11  87 NW5       30.16R WCI   7
BRYCE CANYON   PTCLDY    -5  -9  83 CALM      30.10R
CEDAR CITY     CLOUDY    16  10  77 NE5       30.17S WCI   9
DELTA          MOCLDY    15  13  92 CALM      30.25R
MILFORD        CLOUDY    16  10  77 N6        30.22R WCI   7
MOAB/CYNLANDS  CLOUDY    21  15  78 CALM      30.17R
PRICE          CLEAR     18   4  54 NW7       30.13R WCI   9
ST GEORGE      MOSUNNY   28   9  43 S5        30.25S WCI  23
KANAB          CLEAR     23   9  54 N10       30.21R WCI  12

$$

REGIONAL REPORTS     COLORADO/ARIZONA

CITY           SKY/WX    TMP DP  RH WIND       PRES   REMARKS
CRAIG, CO      LGT SNOW   4   1  88 CALM      30.14R FOG
GRAND JUNCTION CLEAR      8   4  83 CALM      30.17R
RIFLE          CLOUDY    12   5  73 SE3       30.16R
MONTROSE       PTCLDY    16  14  92 CALM      30.15R
CORTEZ         CLEAR      8   4  83 NE8       30.08R WCI  -4
PAGE, AZ       CLOUDY    32   5  32 W7        30.15R WCI  26
GRAND CANYON   CLEAR      8   4  83 NE6       30.09R WCI  -2
KINGMAN        CLEAR     25  14  63 E10       30.19R WCI  15
FLAGSTAFF      CLEAR      8   3  80 CALM      30.05R

$$

REGIONAL REPORTS    NEVADA/IDAHO/WYOMING

CITY           SKY/WX    TMP DP  RH WIND       PRES   REMARKS
LAS VEGAS, NV  CLEAR     41   8  25 NW16      30.23R
ELY            CLEAR     10   6  84 VRB3      30.23R
ELKO           CLEAR     13   9  84 SW5       30.28R WCI   5
POCATELLO, ID  CLOUDY    23  20  88 SW6       30.25R WCI  16
BURLEY         MOCLDY    22  14  71 SW6       30.26R WCI  14
EVANSTON, WY   CLOUDY     7   3  84 SW6       30.12R WCI  -3
ROCK SPRINGS   CLOUDY     5   2  87 SW9       30.09R WCI  -9

$$



USA.gov is the U.S. government's official web portal to all federal, state and local government web resources and services.